Flag for Pakistan Weather past 2 weeks in Rawalpindi, Pakistan

Now
81 °F

Passing clouds.


Feels Like: 85 °F
Forecast: 72 / 92 °F
Wind: 7 mph from Northeast

Location: Islamabad Airport

Current Time: Sep 30, 2014 at 10:12:04 PM

Latest Report: Sep 30, 2014 at 9:00 PM


Visibility: 2 mi

Pressure: 29.95 "Hg

Humidity: 74%

Dew point: 72 °F

Location of RawalpindiLocation

Historic Weather in Rawalpindi — Graph

°F

Rawalpindi temperature yesterday

Maximum temperature yesterday: 91 °F (at 1:00 PM)
Minimum temperature yesterday: 75 °F (at 5:00 AM)
Average temperature yesterday: 82 °F

Past Weeks' High & Low Weather Summary

 TemperatureHumidityPressure
High95 °F (Sep 18, 2:00 PM)100% (Sep 21, 3:00 AM)29.95 "Hg (Sep 21, 3:00 AM)
Low64 °F (Sep 21, 3:00 AM)38% (Sep 25, 2:00 PM)29.65 "Hg (Sep 17, 3:00 AM)
Average82 °F68%29.80 "Hg
* Reported Sep 15 9:00 PM — Sep 30 9:00 PM, Rawalpindi, Weather by CustomWeather, © 2014

Note: Actual official high and low records may vary slightly from our data, if they occured in-between our weather recording intervals... More about our weather records

Advertising

Rawalpindi weather history for previous 24 hours

 ConditionsComfort  
Time TempWeatherWind HumidityBarometerVisibility
9:00 PM
Sep 30
81 °FPassing clouds.7 mph74%29.95 "Hg2 mi
8:00 PM81 °FHaze.7 mph74%29.92 "Hg2 mi
7:00 PM82 °FHaze.7 mph66%29.92 "Hg2 mi
6:00 PM84 °FHaze.12 mph66%29.89 "Hg2 mi
5:00 PM86 °FHaze.12 mph66%29.86 "Hg3 mi
4:00 PM88 °FScattered clouds.12 mph66%29.86 "Hg3 mi
3:00 PM90 °FScattered clouds.12 mph59%29.86 "Hg3 mi
2:00 PM90 °FScattered clouds.12 mph59%29.89 "Hg3 mi
1:00 PM88 °FScattered clouds.12 mph59%29.92 "Hg3 mi
12:00 PM86 °FScattered clouds.12 mph62%29.92 "Hg3 mi
11:00 AM84 °FBroken clouds.12 mph70%29.95 "Hg2 mi
10:00 AM82 °FBroken clouds.12 mph74%29.95 "Hg2 mi
9:00 AM81 °FScattered clouds.7 mph74%29.95 "Hg2 mi
8:00 AM79 °FScattered clouds.9 mph74%29.92 "Hg2 mi
7:00 AM77 °FFog.7 mph79%29.89 "Hg2 mi
5:00 AM75 °FPassing clouds.9 mph83%29.86 "Hg4 mi
4:00 AM75 °FPassing clouds.5 mph83%29.86 "Hg4 mi
3:00 AM77 °FPassing clouds.5 mph83%29.86 "Hg4 mi
2:00 AM77 °FPassing clouds.7 mph79%29.89 "Hg4 mi
1:00 AM79 °FPassing clouds.5 mph74%29.89 "Hg4 mi
12:00 AM81 °FPassing clouds.5 mph70%29.89 "Hg4 mi
11:00 PM
Sep 29
81 °FPassing clouds.9 mph66%29.89 "Hg4 mi
10:00 PM81 °FPassing clouds.9 mph66%29.89 "Hg4 mi
Weather by CustomWeather, © 2014

See weather overviewHow to use our weather pages